Astoria, OR

5:46 AM PST on December 09, 2016 (GMT -0800)
Astoria Regional

Weather History for KAST - January, 2014

Change the Weather History Date:

Thursday, January 30, 2014

  Actual Average Record
Temperature  
Mean Temperature 46 °F 44 °F  
Max Temperature 49 °F 51 °F 70 °F (1940)
Min Temperature 42 °F 38 °F 18 °F (1950)
Degree Days  
Heating Degree Days 19 21  
Month to date heating degree days 592 639  
Since 1 July heating degree days 2780 2745  
Cooling Degree Days 0 0  
Month to date cooling degree days 0 0  
Year to date cooling degree days 0 0  
Moisture  
Dew Point 39 °F    
Average Humidity 79    
Maximum Humidity 92    
Minimum Humidity 66    
Precipitation  
Precipitation 0.28 in 0.30 in 1.63 in (1952)
Month to date precipitation 5.99 9.91  
Year to date precipitation 5.99 9.91  
Sea Level Pressure  
Sea Level Pressure 29.95 in    
Wind  
Wind Speed 9 mph (WSW)    
Max Wind Speed 20 mph    
Max Gust Speed 25 mph    
Visibility 9 miles    
Events Rain    
T = Trace of Precipitation, MM = Missing Value Source: NWS Daily Summary

Daily Weather History Graph

Daily Weather History Graph

Search for Another Location

Airport or City:

Trip Planner

Search our weather history database for the weather conditions in past years. The results will help you decide how hot, cold, wet, or windy it might be!

Date:

Astronomy

Jan. 30, 2014 Rise Set
Actual Time 7:40 AM PST 5:17 PM PST
Civil Twilight 7:08 AM PST 5:50 PM PST
Nautical Twilight 6:32 AM PST 6:26 PM PST
Astronomical Twilight 5:57 AM PST 7:01 PM PST
Moon 7:08 AM PST (1/30) 5:40 PM PST (1/30)
Length of Visible Light 10h 41m
Length of Day
9h 37m
Waning Crescent, 0% of the Moon is Illuminated
Jan 30
Waning Crescent
Jan 30
New
Feb 6
First Quarter
Feb 14
Full
Feb 22
Last Quarter

Hourly Weather History & Observations

Time (PST) Temp. Windchill Dew Point Humidity Pressure Visibility Wind Dir Wind Speed Gust Speed Precip Events Conditions
12:26 AM 45.0 °F 38.5 °F 39.9 °F 82% 29.95 in 9.0 mi West 13.8 mph - 0.00 in   Overcast
12:37 AM 45.0 °F 39.7 °F 39.9 °F 82% 29.95 in 6.0 mi West 10.4 mph - 0.00 in Rain Light Rain
12:55 AM 45.0 °F 41.2 °F 41.0 °F 86% 29.95 in 10.0 mi WSW 6.9 mph - 0.00 in   Overcast
1:55 AM 44.1 °F 40.1 °F 39.9 °F 85% 29.95 in 9.0 mi WSW 6.9 mph - N/A   Overcast
2:55 AM 45.0 °F 40.1 °F 37.9 °F 76% 29.96 in 10.0 mi West 9.2 mph - 0.00 in   Overcast
3:55 AM 45.0 °F 41.2 °F 37.0 °F 74% 29.95 in 10.0 mi West 6.9 mph - N/A   Overcast
4:55 AM 44.1 °F - 39.0 °F 82% 29.95 in 10.0 mi North - - 0.01 in   Overcast
5:55 AM 45.0 °F 41.2 °F 39.0 °F 80% 29.95 in 10.0 mi West 6.9 mph - N/A   Overcast
6:55 AM 44.1 °F 40.1 °F 37.9 °F 79% 29.95 in 10.0 mi West 6.9 mph - N/A   Mostly Cloudy
7:55 AM 44.1 °F 39.5 °F 37.9 °F 79% 29.96 in 10.0 mi WSW 8.1 mph - N/A   Overcast
8:55 AM 45.0 °F 40.1 °F 37.9 °F 76% 29.96 in 9.0 mi WSW 9.2 mph - 0.00 in Rain Light Rain
9:55 AM 46.0 °F 41.4 °F 37.0 °F 71% 29.97 in 10.0 mi West 9.2 mph - 0.00 in   Mostly Cloudy
10:55 AM 46.0 °F 39.3 °F 39.0 °F 76% 29.98 in 9.0 mi WNW 16.1 mph 20.7 mph 0.00 in Rain Light Rain
11:20 AM 46.0 °F 43.9 °F 39.0 °F 76% 29.98 in 10.0 mi West 4.6 mph - 0.01 in   Overcast
11:55 AM 46.9 °F - 39.0 °F 74% 29.97 in 10.0 mi WSW 9.2 mph - 0.01 in   Overcast
12:55 PM 48.0 °F - 37.9 °F 68% 29.96 in 10.0 mi WSW 13.8 mph - N/A   Overcast
1:55 PM 46.9 °F - 39.0 °F 74% 29.94 in 10.0 mi WSW 16.1 mph 21.9 mph 0.00 in   Mostly Cloudy
2:55 PM 46.9 °F - 39.9 °F 77% 29.93 in 10.0 mi WSW 13.8 mph 23.0 mph N/A   Overcast
3:09 PM 46.0 °F 38.8 °F 39.9 °F 79% 29.93 in 10.0 mi WSW 18.4 mph 24.2 mph 0.00 in Rain Light Rain
3:29 PM 45.0 °F 39.3 °F 41.0 °F 86% 29.94 in 10.0 mi WSW 11.5 mph 23.0 mph 0.00 in Rain Light Rain
3:55 PM 45.0 °F 38.5 °F 41.0 °F 86% 29.94 in 10.0 mi WSW 13.8 mph - 0.00 in Rain Light Rain
4:55 PM 45.0 °F 40.6 °F 39.9 °F 82% 29.93 in 10.0 mi South 8.1 mph - 0.01 in Rain Light Rain
5:03 PM 44.1 °F 39.5 °F 39.9 °F 85% 29.94 in 2.5 mi North 8.1 mph - 0.01 in Rain Heavy Rain
5:07 PM 43.0 °F 37.2 °F 39.0 °F 86% 29.94 in 1.2 mi WNW 10.4 mph 18.4 mph 0.04 in Rain Heavy Rain
5:16 PM 44.1 °F 40.1 °F 39.9 °F 85% 29.94 in 2.0 mi SW 6.9 mph 20.7 mph 0.12 in Rain Light Rain
5:23 PM 44.1 °F 40.8 °F 39.9 °F 85% 29.94 in 10.0 mi SSW 5.8 mph - 0.12 in Rain Light Rain
5:38 PM 43.0 °F 40.3 °F 39.9 °F 89% 29.94 in 10.0 mi SSW 4.6 mph - 0.12 in   Overcast
5:55 PM 44.1 °F 40.8 °F 39.9 °F 85% 29.94 in 10.0 mi SSW 5.8 mph - 0.12 in   Overcast
6:55 PM 44.1 °F 41.5 °F 39.9 °F 85% 29.94 in 8.0 mi SW 4.6 mph - 0.00 in Rain Light Rain
7:11 PM 44.1 °F 40.1 °F 39.9 °F 85% 29.95 in 10.0 mi West 6.9 mph - 0.01 in Rain Light Rain
7:33 PM 43.0 °F 40.3 °F 39.0 °F 86% 29.94 in 10.0 mi Variable 4.6 mph - 0.01 in   Mostly Cloudy
7:55 PM 42.1 °F 40.2 °F 39.9 °F 92% 29.95 in 9.0 mi SSW 3.5 mph - 0.01 in Rain Light Rain
8:55 PM 42.1 °F 37.7 °F 37.9 °F 85% 29.95 in 3.0 mi SW 6.9 mph 17.3 mph 0.10 in Rain Heavy Rain
8:59 PM 42.1 °F 38.4 °F 37.0 °F 82% 29.95 in 3.0 mi WSW 5.8 mph 17.3 mph 0.02 in Rain Rain
9:28 PM 43.0 °F 38.8 °F 39.0 °F 86% 29.95 in 10.0 mi SW 6.9 mph - 0.02 in   Mostly Cloudy
9:55 PM 44.1 °F 39.0 °F 39.0 °F 82% 29.96 in 10.0 mi WNW 9.2 mph - 0.02 in   Overcast
10:55 PM 44.1 °F 39.0 °F 39.9 °F 85% 29.96 in 10.0 mi WSW 9.2 mph - N/A   Overcast
11:55 PM 45.0 °F 39.7 °F 39.9 °F 82% 29.96 in 10.0 mi SW 10.4 mph - N/A   Overcast